Regional Weather Roundup
Issued by NWS

Home | Current Version | Previous Version | Graphics & Text | Print | Product List | Glossary Off
Versions: 1 2 3 4 5 6 7 8 9 10 11 12 13 14 15 16 17 18 19 20 21 22 23 24 25 26 27 28 29 30 31 32 33 34 35 36 37 38 39 40 41 42 43 44 45 46 47 48 49 50

263
ASUS43 KTOP 302108
RWRKS

WEATHER ROUNDUP FOR KANSAS
NATIONAL WEATHER SERVICE GOODLAND KS
400 PM CDT SAT JUL 30 2016

NOTE:  "FAIR" INDICATES FEW OR NO CLOUDS BELOW 12,000 FEET WITH NO
SIGNIFICANT WEATHER AND/OR OBSTRUCTIONS TO VISIBILITY.

KSZ001>006-013>018-027>032-041>047-302200-
NORTHWEST KANSAS

CITY           SKY/WX    TMP DP  RH WIND       PRES   REMARKS
GOODLAND       SUNNY     89  62  40 SE16      29.95F
HAYS           SUNNY     88  64  45 S8        29.93F
HILL CITY      MOSUNNY   89  68  49 SE10      29.93F
RUSSELL        MOSUNNY   90  66  45 SE15      29.92F
$$

KSZ061>065-074>080-084>089-302200-
SOUTHWEST KANSAS

CITY           SKY/WX    TMP DP  RH WIND       PRES   REMARKS
DODGE CITY     SUNNY     92  61  35 S10G21    29.94F
ELKHART          N/A     93  62  35 SW16        N/A
GARDEN CITY    SUNNY     89  64  43 S14       29.93F
GREAT BEND     MOSUNNY   88  68  51 S13       29.93F
LIBERAL        SUNNY     93  64  38 SW20      29.94F HX  95
PRATT          SUNNY     87  65  48 S12       29.95S
$$

KSZ066>073-081>083-090>101-302200-
SOUTHEAST KANSAS

CITY           SKY/WX    TMP DP  RH WIND       PRES   REMARKS
CHANUTE        MOSUNNY   88  71  57 SE8       29.95F
COFFEYVILLE    CLOUDY    87  71  58 E8        29.94F
HUTCHINSON     SUNNY     88  66  48 S8        29.95F
MEDICINE LODGE   N/A     89  67  47 S10G16    29.92F
NEWTON         SUNNY     85  67  54 SE7       29.97F
PARSONS        PTSUNNY   88  71  57 VRB6      29.96F
WICHITA INTL   MOSUNNY   88  67  49 SE8       29.94F
WICHITA JABRA  SUNNY     87  66  49 E6        29.95F
WICHITA MCCONL SUNNY     89  65  44 VRB6      29.95F
WINFIELD       SUNNY     87  70  56 SE12      29.95F
$$

KSZ007>012-019>026-033>040-048>060-102>105-302200-
NORTHEAST KANSAS

CITY           SKY/WX    TMP DP  RH WIND       PRES   REMARKS
CONCORDIA      SUNNY     84  68  58 SE13      29.95F
EMPORIA        SUNNY     88  69  53 SE12      29.96F
LAWRENCE       TSTM      71  68  90 SE9       30.00R
MANHATTAN      SUNNY     83  68  60 E12       29.96F
MARYSVILLE     SUNNY     79  70  73 SE6       29.98F
OLATHE IND     CLOUDY    84  67  56 S6        30.00F
OLATHE EXE     SUNNY     84  64  50 CALM      30.00F
SALINA         MOSUNNY   91  67  44 SE14      29.94F
TOPEKA BILLARD PTSUNNY   79  69  71 E12       29.99S
TOPEKA FORBES  CLOUDY    82  67  60 NE14      29.99F
$$




USA.gov is the U.S. government's official web portal to all federal, state and local government web resources and services.